This demonstration page uses our WeatherBlox Daily Observations layout. Learn more.

Left ArrowRight Arrow

31.84235, -102.49876

Hourly Observations for July 6, 2022

Temp ( °F °C ) Dew Point ( °F °C ) Humidity (%) Winds ( mph kmh ) Pressure ( in mb ) Visibility ( mi km ) Precip ( " mm )
12:53 am 00:53 Clear 79 26.1 62 16.7 56 56 NNW 3 6 29.84 1011 10 16 0.00 0.00
1:53 am 01:53 Clear 77 25 63 17.2 62 62 S 6 9 29.83 1010 10 16 0.00 0.00
2:53 am 02:53 Clear 77 25 62 16.7 60 60 SW 7 11 29.83 1010 10 16 0.00 0.00
3:53 am 03:53 Clear 76 24.4 62 16.7 62 62 W 3 6 29.83 1010 10 16 0.00 0.00
4:53 am 04:53 Clear 77 25 62 16.7 60 60 S 7 11 29.83 1010 10 16 0.00 0.00
5:53 am 05:53 Clear 78 25.6 61 16.1 56 56 S 13 20 29.84 1011 10 16 0.00 0.00
6:53 am 06:53 Sunny 78 25.6 64 17.8 62 62 S 15 24 29.87 1011 10 16 0.00 0.00
7:53 am 07:53 Sunny 79 26.1 64 17.8 60 60 SSW 16 26 29.88 1012 10 16 0.00 0.00
8:53 am 08:53 Sunny 81 27.2 61 16.1 51 51 SSW 12 19 29.89 1012 10 16 0.00 0.00
9:53 am 09:53 Sunny 83 28.3 60 15.6 46 46 SW 10 17 29.90 1013 10 16 0.00 0.00
10:53 am 10:53 Sunny 87 30.6 60 15.6 40 40 SW 12 19 29.90 1012 10 16 0.00 0.00
11:53 am 11:53 Sunny 89 31.7 61 16.1 39 39 WSW 10 17 29.90 1013 10 16 0.00 0.00
12:53 pm 12:53 Sunny 92 33.3 59 15 33 33 SW 10 17 29.88 1012 10 16 0.00 0.00
1:53 pm 13:53 Sunny 94 34.4 60 15.6 32 32 SSE 8 13 29.86 1011 10 16 0.00 0.00
2:53 pm 14:53 Sunny 95 35 56 13.3 27 27 S 9 15 29.85 1011 10 16 0.00 0.00
3:53 pm 15:53 Sunny 98 36.7 58 14.4 26 26 SSE 10 17 29.81 1010 10 16 0.00 0.00
4:53 pm 16:53 Sunny 98 36.7 57 13.9 25 25 SSE 14 22 29.78 1009 10 16 0.00 0.00
5:53 pm 17:53 Sunny 99 37.2 57 13.9 25 25 SSW 12 19 29.77 1008 10 16 0.00 0.00
6:53 pm 18:53 Mostly Sunny 99 37.2 56 13.3 24 24 SSW 8 13 29.75 1008 10 16 0.00 0.00
7:53 pm 19:53 Partly Cloudy 97 36.1 53 11.7 23 23 SSW 9 15 29.76 1008 10 16 0.00 0.00
8:53 pm 20:53 Sunny 95 35 54 12.2 25 25 S 8 13 29.77 1008 10 16 0.00 0.00
9:53 pm 21:53 Partly Cloudy 94 34.4 54 12.2 26 26 S 9 15 29.78 1009 10 16 0.00 0.00
10:53 pm 22:53 Clear 91 32.8 53 11.7 27 27 S 12 19 29.80 1009 10 16 0.00 0.00
11:53 pm 23:53 Clear 89 31.7 54 12.2 30 30 S 15 24 29.81 1010 10 16 0.00 0.00

Powered by AerisWeather